owner,sensor,date,latitude,longitude,vertical_datum,wind_speed,wind_to_direction,wind_speed_of_gust,qcFlag 
COMPS,ioos:station:USF.COMPS:C10:1,2019-07-01T00:35:00,27.1690,-82.9260,3.0,4.63,232.89,5.67,'11111222,11111222,11111222' 
COMPS,ioos:station:USF.COMPS:C10:1,2019-07-01T01:35:00,27.1690,-82.9260,3.0,4.54,250.12,5.68,'11111222,11111222,11111222' 
COMPS,ioos:station:USF.COMPS:C10:1,2019-07-01T02:35:00,27.1690,-82.9260,3.0,4.73,253.44,5.71,'11111222,11111222,11111222' 
COMPS,ioos:station:USF.COMPS:C10:1,2019-07-01T03:35:00,27.1690,-82.9260,3.0,4.52,263.39,5.56,'11111222,11111222,11111222' 
COMPS,ioos:station:USF.COMPS:C10:1,2019-07-01T04:35:00,27.1690,-82.9260,3.0,4.91,256.77,5.9,'11111222,11111222,11111222' 
COMPS,ioos:station:USF.COMPS:C10:1,2019-07-01T05:35:00,27.1690,-82.9260,3.0,4.5,261.69,5.78,'11111222,11111222,11111222' 
COMPS,ioos:station:USF.COMPS:C10:1,2019-07-01T06:35:00,27.1690,-82.9260,3.0,4.96,269.21,5.88,'11111222,11111222,11111222' 
COMPS,ioos:station:USF.COMPS:C10:1,2019-07-01T07:35:00,27.1690,-82.9260,3.0,4.83,279.67,6.46,'11111222,11111222,11111222' 
COMPS,ioos:station:USF.COMPS:C10:1,2019-07-01T08:35:00,27.1690,-82.9260,3.0,3.89,305.69,4.92,'11111222,11111222,11111222' 
COMPS,ioos:station:USF.COMPS:C10:1,2019-07-01T09:35:00,27.1690,-82.9260,3.0,3.86,300.48,4.86,'11111222,11111222,11111222' 
COMPS,ioos:station:USF.COMPS:C10:1,2019-07-01T10:35:00,27.1690,-82.9260,3.0,4.09,312.21,5.18,'11111222,11111222,11111222' 
COMPS,ioos:station:USF.COMPS:C10:1,2019-07-01T11:35:00,27.1690,-82.9260,3.0,4.58,313.68,5.78,'11111222,11111222,11111222' 
COMPS,ioos:station:USF.COMPS:C10:1,2019-07-01T12:35:00,27.1690,-82.9260,3.0,4.51,340.5,5.59,'11111222,11111222,11111222' 
COMPS,ioos:station:USF.COMPS:C10:1,2019-07-01T13:35:00,27.1690,-82.9260,3.0,4.12,344.49,5.23,'11111222,11111222,11111222' 
COMPS,ioos:station:USF.COMPS:C10:1,2019-07-01T15:35:00,27.1690,-82.9260,3.0,3.3,337.7,4.24,'11111222,11111222,11111222' 
COMPS,ioos:station:USF.COMPS:C10:1,2019-07-01T16:35:00,27.1690,-82.9260,3.0,3.56,333.94,4.85,'11111222,11111222,11111222' 
COMPS,ioos:station:USF.COMPS:C10:1,2019-07-01T17:35:00,27.1690,-82.9260,3.0,3.32,331.16,4.17,'11111222,11111222,11111222' 
COMPS,ioos:station:USF.COMPS:C10:1,2019-07-01T18:35:00,27.1690,-82.9260,3.0,3.27,306.01,4.35,'11111222,11111222,11111222' 
COMPS,ioos:station:USF.COMPS:C10:1,2019-07-01T19:35:00,27.1690,-82.9260,3.0,3.46,293.53,4.32,'11111222,11111222,11111222' 
COMPS,ioos:station:USF.COMPS:C10:1,2019-07-01T20:35:00,27.1690,-82.9260,3.0,4.49,289.07,5.54,'11111222,11111222,11111222' 
COMPS,ioos:station:USF.COMPS:C10:1,2019-07-01T21:35:00,27.1690,-82.9260,3.0,4.73,287.73,5.9,'11111222,11111222,11111222' 
COMPS,ioos:station:USF.COMPS:C10:1,2019-07-01T22:35:00,27.1690,-82.9260,3.0,4.33,285.9,5.45,'11111222,11111222,11111222' 
COMPS,ioos:station:USF.COMPS:C10:1,2019-07-01T23:35:00,27.1690,-82.9260,3.0,4.76,296.44,5.89,'11111222,11111222,11111222' 
COMPS,ioos:station:USF.COMPS:C10:1,2019-07-02T00:35:00,27.1690,-82.9260,3.0,4.77,299.59,6.28,'11111222,11111222,11111222' 
COMPS,ioos:station:USF.COMPS:C10:1,2019-07-02T01:35:00,27.1690,-82.9260,3.0,4.41,279.42,5.48,'11111222,11111222,11111222' 
COMPS,ioos:station:USF.COMPS:C10:1,2019-07-02T02:35:00,27.1690,-82.9260,3.0,5.51,285.5,6.71,'11111222,11111222,11111222' 
COMPS,ioos:station:USF.COMPS:C10:1,2019-07-02T03:35:00,27.1690,-82.9260,3.0,5.44,286.08,6.76,'11111222,11111222,11111222' 
COMPS,ioos:station:USF.COMPS:C10:1,2019-07-02T04:35:00,27.1690,-82.9260,3.0,5.27,291.43,6.43,'11111222,11111222,11111222' 
COMPS,ioos:station:USF.COMPS:C10:1,2019-07-02T05:35:00,27.1690,-82.9260,3.0,5.14,293.53,6.17,'11111222,11111222,11111222' 
COMPS,ioos:station:USF.COMPS:C10:1,2019-07-02T06:35:00,27.1690,-82.9260,3.0,5.47,289.97,6.81,'11111222,11111222,11111222' 
COMPS,ioos:station:USF.COMPS:C10:1,2019-07-02T07:35:00,27.1690,-82.9260,3.0,5.59,303.14,7.17,'11111222,11111222,11111222' 
COMPS,ioos:station:USF.COMPS:C10:1,2019-07-02T08:35:00,27.1690,-82.9260,3.0,6.06,314.03,7.49,'11111222,11111222,11111222' 
COMPS,ioos:station:USF.COMPS:C10:1,2019-07-02T09:35:00,27.1690,-82.9260,3.0,6.08,310.64,7.69,'11111222,11111222,11111222' 
COMPS,ioos:station:USF.COMPS:C10:1,2019-07-02T10:35:00,27.1690,-82.9260,3.0,5.96,310.34,7.14,'11111222,11111222,11111222' 
COMPS,ioos:station:USF.COMPS:C10:1,2019-07-02T11:35:00,27.1690,-82.9260,3.0,6.08,326.33,7.44,'11111222,11111222,11111222' 
COMPS,ioos:station:USF.COMPS:C10:1,2019-07-02T12:35:00,27.1690,-82.9260,3.0,5.71,331.05,7.1,'11111222,11111222,11111222' 
COMPS,ioos:station:USF.COMPS:C10:1,2019-07-02T13:35:00,27.1690,-82.9260,3.0,5.17,335.32,6.27,'11111222,11111222,11111222' 
COMPS,ioos:station:USF.COMPS:C10:1,2019-07-02T14:35:00,27.1690,-82.9260,3.0,5.0,340.16,6.17,'11111222,11111222,11111222' 
COMPS,ioos:station:USF.COMPS:C10:1,2019-07-02T15:35:00,27.1690,-82.9260,3.0,5.78,347.55,7.5,'11111222,11111222,11111222' 
COMPS,ioos:station:USF.COMPS:C10:1,2019-07-02T16:35:00,27.1690,-82.9260,3.0,5.34,345.94,6.79,'11111222,11111222,11111222' 
COMPS,ioos:station:USF.COMPS:C10:1,2019-07-02T17:35:00,27.1690,-82.9260,3.0,4.41,343.39,5.63,'11111222,11111222,11111222' 
COMPS,ioos:station:USF.COMPS:C10:1,2019-07-02T18:35:00,27.1690,-82.9260,3.0,4.65,332.75,5.48,'11111222,11111222,11111222' 
COMPS,ioos:station:USF.COMPS:C10:1,2019-07-02T19:35:00,27.1690,-82.9260,3.0,4.74,308.88,5.72,'11111222,11111222,11111222' 
COMPS,ioos:station:USF.COMPS:C10:1,2019-07-02T20:35:00,27.1690,-82.9260,3.0,4.88,303.43,6.26,'11111222,11111222,11111222' 
COMPS,ioos:station:USF.COMPS:C10:1,2019-07-02T21:35:00,27.1690,-82.9260,3.0,5.63,304.42,6.59,'11111222,11111222,11111222' 
COMPS,ioos:station:USF.COMPS:C10:1,2019-07-02T22:35:00,27.1690,-82.9260,3.0,4.89,305.17,6.2,'11111222,11111222,11111222' 
COMPS,ioos:station:USF.COMPS:C10:1,2019-07-02T23:35:00,27.1690,-82.9260,3.0,5.03,304.28,6.3,'11111222,11111222,11111222' 
COMPS,ioos:station:USF.COMPS:C10:1,2019-07-03T00:35:00,27.1690,-82.9260,3.0,5.59,299.9,6.96,'11111222,11111222,11111222' 
COMPS,ioos:station:USF.COMPS:C10:1,2019-07-03T01:35:00,27.1690,-82.9260,3.0,5.59,312.33,6.86,'11111222,11111222,11111222' 
COMPS,ioos:station:USF.COMPS:C10:1,2019-07-03T02:35:00,27.1690,-82.9260,3.0,4.72,312.26,6.03,'11111222,11111222,11111222' 
COMPS,ioos:station:USF.COMPS:C10:1,2019-07-03T03:35:00,27.1690,-82.9260,3.0,5.42,299.41,7.41,'11111222,11111222,11111222' 
COMPS,ioos:station:USF.COMPS:C10:1,2019-07-03T04:35:00,27.1690,-82.9260,3.0,5.81,314.66,7.02,'11111222,11111222,11111222' 
COMPS,ioos:station:USF.COMPS:C10:1,2019-07-03T05:35:00,27.1690,-82.9260,3.0,5.89,313.84,7.1,'11111222,11111222,11111222' 
COMPS,ioos:station:USF.COMPS:C10:1,2019-07-03T06:35:00,27.1690,-82.9260,3.0,6.0,323.72,7.67,'11111222,11111222,11111222' 
COMPS,ioos:station:USF.COMPS:C10:1,2019-07-03T07:35:00,27.1690,-82.9260,3.0,5.78,325.19,7.36,'11111222,11111222,11111222' 
COMPS,ioos:station:USF.COMPS:C10:1,2019-07-03T08:35:00,27.1690,-82.9260,3.0,6.62,323.95,8.17,'11111222,11111222,11111222' 
COMPS,ioos:station:USF.COMPS:C10:1,2019-07-03T09:35:00,27.1690,-82.9260,3.0,6.14,337.26,7.48,'11111222,11111222,11111222' 
COMPS,ioos:station:USF.COMPS:C10:1,2019-07-03T10:35:00,27.1690,-82.9260,3.0,6.49,337.46,8.05,'11111222,11111222,11111222' 
COMPS,ioos:station:USF.COMPS:C10:1,2019-07-03T11:35:00,27.1690,-82.9260,3.0,5.31,342.75,6.67,'11111222,11111222,11111222' 
COMPS,ioos:station:USF.COMPS:C10:1,2019-07-03T12:35:00,27.1690,-82.9260,3.0,4.73,355.11,6.02,'11111222,11111222,11111222' 
COMPS,ioos:station:USF.COMPS:C10:1,2019-07-03T13:35:00,27.1690,-82.9260,3.0,3.47,3.36,4.73,'11111222,11111222,11111222' 
COMPS,ioos:station:USF.COMPS:C10:1,2019-07-03T14:35:00,27.1690,-82.9260,3.0,3.14,340.63,4.39,'11111222,11111222,11111222' 
COMPS,ioos:station:USF.COMPS:C10:1,2019-07-03T15:35:00,27.1690,-82.9260,3.0,1.43,358.94,2.18,'11111222,11111222,11111222' 
COMPS,ioos:station:USF.COMPS:C10:1,2019-07-03T16:35:00,27.1690,-82.9260,3.0,2.19,350.91,3.01,'11111222,11111222,11111222' 
COMPS,ioos:station:USF.COMPS:C10:1,2019-07-03T17:35:00,27.1690,-82.9260,3.0,4.12,333.81,5.42,'11111222,11111222,11111222' 
COMPS,ioos:station:USF.COMPS:C10:1,2019-07-03T18:35:00,27.1690,-82.9260,3.0,4.5,320.19,5.82,'11111222,11111222,11111222' 
COMPS,ioos:station:USF.COMPS:C10:1,2019-07-03T19:35:00,27.1690,-82.9260,3.0,4.39,333.25,5.45,'11111222,11111222,11111222' 
COMPS,ioos:station:USF.COMPS:C10:1,2019-07-03T20:35:00,27.1690,-82.9260,3.0,5.09,317.05,6.45,'11111222,11111222,11111222' 
COMPS,ioos:station:USF.COMPS:C10:1,2019-07-03T21:35:00,27.1690,-82.9260,3.0,5.28,318.08,6.69,'11111222,11111222,11111222' 
COMPS,ioos:station:USF.COMPS:C10:1,2019-07-03T22:35:00,27.1690,-82.9260,3.0,4.0,306.77,5.1,'11111222,11111222,11111222' 
COMPS,ioos:station:USF.COMPS:C10:1,2019-07-03T23:35:00,27.1690,-82.9260,3.0,4.46,327.14,5.46,'11111222,11111222,11111222' 
COMPS,ioos:station:USF.COMPS:C10:1,2019-07-04T00:35:00,27.1690,-82.9260,3.0,6.52,319.16,8.18,'11111222,11111222,11111222' 
COMPS,ioos:station:USF.COMPS:C10:1,2019-07-04T01:35:00,27.1690,-82.9260,3.0,5.37,342.33,6.71,'11111222,11111222,11111222' 
COMPS,ioos:station:USF.COMPS:C10:1,2019-07-04T02:35:00,27.1690,-82.9260,3.0,3.59,356.32,4.6,'11111222,11111222,11111222' 
COMPS,ioos:station:USF.COMPS:C10:1,2019-07-04T03:35:00,27.1690,-82.9260,3.0,3.55,325.19,4.55,'11111222,11111222,11111222' 
COMPS,ioos:station:USF.COMPS:C10:1,2019-07-04T04:35:00,27.1690,-82.9260,3.0,4.24,333.81,5.24,'11111222,11111222,11111222' 
COMPS,ioos:station:USF.COMPS:C10:1,2019-07-04T05:35:00,27.1690,-82.9260,3.0,3.48,345.13,5.0,'11111222,11111222,11111222' 
COMPS,ioos:station:USF.COMPS:C10:1,2019-07-04T06:35:00,27.1690,-82.9260,3.0,5.15,349.4,6.21,'11111222,11111222,11111222' 
COMPS,ioos:station:USF.COMPS:C10:1,2019-07-04T07:35:00,27.1690,-82.9260,3.0,5.46,7.62,6.86,'11111222,11111222,11111222' 
COMPS,ioos:station:USF.COMPS:C10:1,2019-07-04T08:35:00,27.1690,-82.9260,3.0,5.02,10.41,5.84,'11111222,11111222,11111222' 
COMPS,ioos:station:USF.COMPS:C10:1,2019-07-04T09:35:00,27.1690,-82.9260,3.0,4.76,18.15,5.83,'11111222,11111222,11111222' 
COMPS,ioos:station:USF.COMPS:C10:1,2019-07-04T10:35:00,27.1690,-82.9260,3.0,4.5,24.44,6.29,'11111222,11111222,11111222' 
COMPS,ioos:station:USF.COMPS:C10:1,2019-07-04T14:35:00,27.1690,-82.9260,3.0,4.31,128.56,5.35,'11111222,11111222,11111222' 
COMPS,ioos:station:USF.COMPS:C10:1,2019-07-04T15:35:00,27.1690,-82.9260,3.0,3.87,137.81,4.96,'11111222,11111222,11111222' 
COMPS,ioos:station:USF.COMPS:C10:1,2019-07-04T16:35:00,27.1690,-82.9260,3.0,3.46,141.33,4.62,'11111222,11111222,11111222' 
COMPS,ioos:station:USF.COMPS:C10:1,2019-07-04T17:35:00,27.1690,-82.9260,3.0,1.81,153.79,2.96,'11111222,11111222,11111222' 
COMPS,ioos:station:USF.COMPS:C10:1,2019-07-04T18:35:00,27.1690,-82.9260,3.0,2.77,184.36,3.87,'11111222,11111222,11111222' 
COMPS,ioos:station:USF.COMPS:C10:1,2019-07-04T19:35:00,27.1690,-82.9260,3.0,3.69,210.9,4.88,'11111222,11111222,11111222' 
COMPS,ioos:station:USF.COMPS:C10:1,2019-07-04T20:35:00,27.1690,-82.9260,3.0,3.09,211.25,4.23,'11111222,11111222,11111222' 
COMPS,ioos:station:USF.COMPS:C10:1,2019-07-04T21:35:00,27.1690,-82.9260,3.0,2.25,248.46,3.07,'11111222,11111222,11111222' 
COMPS,ioos:station:USF.COMPS:C10:1,2019-07-04T22:35:00,27.1690,-82.9260,3.0,1.9,296.11,2.68,'11111222,11111222,11111222' 
COMPS,ioos:station:USF.COMPS:C10:1,2019-07-04T23:35:00,27.1690,-82.9260,3.0,3.35,308.78,4.24,'11111222,11111222,11111222' 
COMPS,ioos:station:USF.COMPS:C10:1,2019-07-05T00:35:00,27.1690,-82.9260,3.0,2.85,321.54,3.69,'11111222,11111222,11111222' 
COMPS,ioos:station:USF.COMPS:C10:1,2019-07-05T01:35:00,27.1690,-82.9260,3.0,3.32,328.46,4.12,'11111222,11111222,11111222' 
COMPS,ioos:station:USF.COMPS:C10:1,2019-07-05T02:35:00,27.1690,-82.9260,3.0,3.73,353.13,4.63,'11111222,11111222,11111222' 
COMPS,ioos:station:USF.COMPS:C10:1,2019-07-05T03:35:00,27.1690,-82.9260,3.0,3.42,3.05,4.48,'11111222,11111222,11111222' 
COMPS,ioos:station:USF.COMPS:C10:1,2019-07-05T04:35:00,27.1690,-82.9260,3.0,6.21,127.93,7.61,'11111222,11111222,11111222' 
COMPS,ioos:station:USF.COMPS:C10:1,2019-07-05T05:35:00,27.1690,-82.9260,3.0,4.9,124.49,5.9,'11111222,11111222,11111222' 
COMPS,ioos:station:USF.COMPS:C10:1,2019-07-05T06:35:00,27.1690,-82.9260,3.0,4.03,104.15,5.02,'11111222,11111222,11111222' 
COMPS,ioos:station:USF.COMPS:C10:1,2019-07-05T07:35:00,27.1690,-82.9260,3.0,3.28,104.65,4.09,'11111222,11111222,11111222' 
COMPS,ioos:station:USF.COMPS:C10:1,2019-07-05T08:35:00,27.1690,-82.9260,3.0,1.88,118.25,2.6,'11111222,11111222,11111222' 
COMPS,ioos:station:USF.COMPS:C10:1,2019-07-05T09:35:00,27.1690,-82.9260,3.0,1.96,143.32,2.62,'11111222,11111222,11111222' 
COMPS,ioos:station:USF.COMPS:C10:1,2019-07-05T10:35:00,27.1690,-82.9260,3.0,2.77,138.85,3.67,'11111222,11111222,11111222' 
COMPS,ioos:station:USF.COMPS:C10:1,2019-07-05T11:35:00,27.1690,-82.9260,3.0,4.09,129.23,5.19,'11111222,11111222,11111222' 
COMPS,ioos:station:USF.COMPS:C10:1,2019-07-05T12:35:00,27.1690,-82.9260,3.0,3.15,121.69,4.36,'11111222,11111222,11111222' 
COMPS,ioos:station:USF.COMPS:C10:1,2019-07-05T13:35:00,27.1690,-82.9260,3.0,2.14,132.33,3.05,'11111222,11111222,11111222' 
COMPS,ioos:station:USF.COMPS:C10:1,2019-07-05T14:35:00,27.1690,-82.9260,3.0,4.35,125.19,5.32,'11111222,11111222,11111222' 
COMPS,ioos:station:USF.COMPS:C10:1,2019-07-05T15:35:00,27.1690,-82.9260,3.0,3.91,144.76,4.98,'11111222,11111222,11111222' 
COMPS,ioos:station:USF.COMPS:C10:1,2019-07-05T16:35:00,27.1690,-82.9260,3.0,3.68,145.48,4.71,'11111222,11111222,11111222' 
COMPS,ioos:station:USF.COMPS:C10:1,2019-07-05T17:35:00,27.1690,-82.9260,3.0,3.5,171.02,4.74,'11111222,11111222,11111222' 
COMPS,ioos:station:USF.COMPS:C10:1,2019-07-05T18:35:00,27.1690,-82.9260,3.0,2.99,192.84,3.92,'11111222,11111222,11111222' 
COMPS,ioos:station:USF.COMPS:C10:1,2019-07-05T19:35:00,27.1690,-82.9260,3.0,3.05,220.67,4.09,'11111222,11111222,11111222' 
COMPS,ioos:station:USF.COMPS:C10:1,2019-07-05T20:35:00,27.1690,-82.9260,3.0,2.25,242.7,3.2,'11111222,11111222,11111222' 
COMPS,ioos:station:USF.COMPS:C10:1,2019-07-05T21:35:00,27.1690,-82.9260,3.0,3.37,268.26,4.29,'11111222,11111222,11111222' 
COMPS,ioos:station:USF.COMPS:C10:1,2019-07-05T22:35:00,27.1690,-82.9260,3.0,2.74,254.48,3.37,'11111222,11111222,11111222' 
COMPS,ioos:station:USF.COMPS:C10:1,2019-07-05T23:35:00,27.1690,-82.9260,3.0,0.99,129.77,1.69,'11111222,11111222,11111222' 
COMPS,ioos:station:USF.COMPS:C10:1,2019-07-06T00:35:00,27.1690,-82.9260,3.0,1.06,22.11,1.64,'11111222,11111222,11111222' 
COMPS,ioos:station:USF.COMPS:C10:1,2019-07-06T01:35:00,27.1690,-82.9260,3.0,2.14,68.2,3.02,'11111222,11111222,11111222' 
COMPS,ioos:station:USF.COMPS:C10:1,2019-07-06T02:35:00,27.1690,-82.9260,3.0,2.45,118.9,3.28,'11111222,11111222,11111222' 
COMPS,ioos:station:USF.COMPS:C10:1,2019-07-06T03:35:00,27.1690,-82.9260,3.0,3.08,147.31,4.09,'11111222,11111222,11111222' 
COMPS,ioos:station:USF.COMPS:C10:1,2019-07-06T04:35:00,27.1690,-82.9260,3.0,3.32,158.88,4.55,'11111222,11111222,11111222' 
COMPS,ioos:station:USF.COMPS:C10:1,2019-07-06T05:35:00,27.1690,-82.9260,3.0,3.39,149.84,4.61,'11111222,11111222,11111222' 
COMPS,ioos:station:USF.COMPS:C10:1,2019-07-06T06:35:00,27.1690,-82.9260,3.0,3.92,127.74,5.2,'11111222,11111222,11111222' 
COMPS,ioos:station:USF.COMPS:C10:1,2019-07-06T07:35:00,27.1690,-82.9260,3.0,4.62,141.08,5.83,'11111222,11111222,11111222' 
COMPS,ioos:station:USF.COMPS:C10:1,2019-07-06T08:35:00,27.1690,-82.9260,3.0,5.97,138.59,7.38,'11111222,11111222,11111222' 
COMPS,ioos:station:USF.COMPS:C10:1,2019-07-06T09:35:00,27.1690,-82.9260,3.0,4.81,133.05,5.91,'11111222,11111222,11111222' 
COMPS,ioos:station:USF.COMPS:C10:1,2019-07-06T10:35:00,27.1690,-82.9260,3.0,5.39,144.71,7.02,'11111222,11111222,11111222' 
COMPS,ioos:station:USF.COMPS:C10:1,2019-07-06T11:35:00,27.1690,-82.9260,3.0,5.02,129.65,6.66,'11111222,11111222,11111222' 
COMPS,ioos:station:USF.COMPS:C10:1,2019-07-06T12:35:00,27.1690,-82.9260,3.0,11.37,165.09,15.23,'11111222,11111222,11111222' 
COMPS,ioos:station:USF.COMPS:C10:1,2019-07-06T13:35:00,27.1690,-82.9260,3.0,6.77,169.98,9.31,'11111222,11111222,11111222' 
COMPS,ioos:station:USF.COMPS:C10:1,2019-07-06T14:35:00,27.1690,-82.9260,3.0,5.7,198.45,6.93,'11111222,11111222,11111222' 
COMPS,ioos:station:USF.COMPS:C10:1,2019-07-06T15:35:00,27.1690,-82.9260,3.0,4.94,191.23,6.25,'11111222,11111222,11111222' 
COMPS,ioos:station:USF.COMPS:C10:1,2019-07-06T16:35:00,27.1690,-82.9260,3.0,5.62,170.54,7.22,'11111222,11111222,11111222' 
COMPS,ioos:station:USF.COMPS:C10:1,2019-07-06T17:35:00,27.1690,-82.9260,3.0,4.05,194.81,5.47,'11111222,11111222,11111222' 
COMPS,ioos:station:USF.COMPS:C10:1,2019-07-06T18:35:00,27.1690,-82.9260,3.0,2.44,235.85,3.55,'11111222,11111222,11111222' 
COMPS,ioos:station:USF.COMPS:C10:1,2019-07-06T19:35:00,27.1690,-82.9260,3.0,3.34,220.64,4.44,'11111222,11111222,11111222' 
COMPS,ioos:station:USF.COMPS:C10:1,2019-07-06T20:35:00,27.1690,-82.9260,3.0,4.65,215.8,6.07,'11111222,11111222,11111222' 
COMPS,ioos:station:USF.COMPS:C10:1,2019-07-06T21:35:00,27.1690,-82.9260,3.0,4.21,212.2,5.78,'11111222,11111222,11111222' 
COMPS,ioos:station:USF.COMPS:C10:1,2019-07-06T22:35:00,27.1690,-82.9260,3.0,2.83,224.13,3.53,'11111222,11111222,11111222' 
COMPS,ioos:station:USF.COMPS:C10:1,2019-07-06T23:35:00,27.1690,-82.9260,3.0,2.18,235.64,3.11,'11111222,11111222,11111222' 
COMPS,ioos:station:USF.COMPS:C10:1,2019-07-07T00:35:00,27.1690,-82.9260,3.0,2.82,205.75,3.93,'11111222,11111222,11111222' 
COMPS,ioos:station:USF.COMPS:C10:1,2019-07-07T01:35:00,27.1690,-82.9260,3.0,1.48,219.42,2.15,'11111222,11111222,11111222' 
COMPS,ioos:station:USF.COMPS:C10:1,2019-07-07T02:35:00,27.1690,-82.9260,3.0,7.01,283.46,9.86,'11111222,11111222,11111222' 
COMPS,ioos:station:USF.COMPS:C10:1,2019-07-07T03:35:00,27.1690,-82.9260,3.0,4.07,205.71,7.75,'11111222,11111222,11111222' 
COMPS,ioos:station:USF.COMPS:C10:1,2019-07-07T04:35:00,27.1690,-82.9260,3.0,2.28,210.31,3.06,'11111222,11111222,11111222' 
COMPS,ioos:station:USF.COMPS:C10:1,2019-07-07T05:35:00,27.1690,-82.9260,3.0,1.06,171.51,1.88,'11111222,11111222,11111222' 
COMPS,ioos:station:USF.COMPS:C10:1,2019-07-07T06:35:00,27.1690,-82.9260,3.0,1.5,225.08,2.15,'11111222,11111222,11111222' 
COMPS,ioos:station:USF.COMPS:C10:1,2019-07-07T07:35:00,27.1690,-82.9260,3.0,0.78,288.26,1.63,'11111222,11111222,11111222' 
COMPS,ioos:station:USF.COMPS:C10:1,2019-07-07T08:35:00,27.1690,-82.9260,3.0,0.88,274.28,1.71,'11111222,11111222,11111222' 
COMPS,ioos:station:USF.COMPS:C10:1,2019-07-07T09:35:00,27.1690,-82.9260,3.0,1.18,296.29,1.9,'11111222,11111222,11111222' 
COMPS,ioos:station:USF.COMPS:C10:1,2019-07-07T10:35:00,27.1690,-82.9260,3.0,1.32,357.36,1.84,'11111222,11111222,11111222' 
COMPS,ioos:station:USF.COMPS:C10:1,2019-07-07T11:35:00,27.1690,-82.9260,3.0,1.15,78.72,1.87,'11111222,11111222,11111222' 
COMPS,ioos:station:USF.COMPS:C10:1,2019-07-07T12:35:00,27.1690,-82.9260,3.0,0.8,318.5,1.93,'11111222,11111222,11111222' 
COMPS,ioos:station:USF.COMPS:C10:1,2019-07-07T13:35:00,27.1690,-82.9260,3.0,2.07,246.46,3.12,'11111222,11111222,11111222' 
COMPS,ioos:station:USF.COMPS:C10:1,2019-07-07T14:35:00,27.1690,-82.9260,3.0,1.63,258.94,2.58,'11111222,11111222,11111222' 
COMPS,ioos:station:USF.COMPS:C10:1,2019-07-07T15:35:00,27.1690,-82.9260,3.0,2.96,152.25,6.89,'11111222,11111222,11111222' 
COMPS,ioos:station:USF.COMPS:C10:1,2019-07-07T16:35:00,27.1690,-82.9260,3.0,5.03,178.07,7.2,'11111222,11111222,11111222' 
COMPS,ioos:station:USF.COMPS:C10:1,2019-07-07T17:35:00,27.1690,-82.9260,3.0,1.59,165.18,2.83,'11111222,11111222,11111222' 
COMPS,ioos:station:USF.COMPS:C10:1,2019-07-07T18:35:00,27.1690,-82.9260,3.0,1.14,260.48,2.53,'11111222,11111222,11111222' 
COMPS,ioos:station:USF.COMPS:C10:1,2019-07-07T19:35:00,27.1690,-82.9260,3.0,4.27,246.27,5.63,'11111222,11111222,11111222' 
COMPS,ioos:station:USF.COMPS:C10:1,2019-07-07T20:35:00,27.1690,-82.9260,3.0,3.93,259.97,4.8,'11111222,11111222,11111222' 
COMPS,ioos:station:USF.COMPS:C10:1,2019-07-07T21:35:00,27.1690,-82.9260,3.0,3.71,253.06,4.53,'11111222,11111222,11111222' 
COMPS,ioos:station:USF.COMPS:C10:1,2019-07-07T22:35:00,27.1690,-82.9260,3.0,2.08,232.53,3.11,'11111222,11111222,11111222' 
COMPS,ioos:station:USF.COMPS:C10:1,2019-07-07T23:35:00,27.1690,-82.9260,3.0,2.82,263.33,4.0,'11111222,11111222,11111222' 
COMPS,ioos:station:USF.COMPS:C10:1,2019-07-08T00:35:00,27.1690,-82.9260,3.0,2.55,252.3,3.35,'11111222,11111222,11111222' 
COMPS,ioos:station:USF.COMPS:C10:1,2019-07-08T01:35:00,27.1690,-82.9260,3.0,2.57,258.2,3.67,'11111222,11111222,11111222' 
COMPS,ioos:station:USF.COMPS:C10:1,2019-07-08T02:35:00,27.1690,-82.9260,3.0,2.7,262.15,3.93,'11111222,11111222,11111222' 
COMPS,ioos:station:USF.COMPS:C10:1,2019-07-08T03:35:00,27.1690,-82.9260,3.0,1.9,242.31,2.93,'11111222,11111222,11111222' 
COMPS,ioos:station:USF.COMPS:C10:1,2019-07-08T04:35:00,27.1690,-82.9260,3.0,3.37,256.59,4.35,'11111222,11111222,11111222' 
COMPS,ioos:station:USF.COMPS:C10:1,2019-07-08T05:35:00,27.1690,-82.9260,3.0,3.41,248.1,4.57,'11111222,11111222,11111222' 
COMPS,ioos:station:USF.COMPS:C10:1,2019-07-08T06:35:00,27.1690,-82.9260,3.0,4.76,233.77,5.94,'11111222,11111222,11111222' 
COMPS,ioos:station:USF.COMPS:C10:1,2019-07-08T07:35:00,27.1690,-82.9260,3.0,4.46,241.15,5.57,'11111222,11111222,11111222' 
COMPS,ioos:station:USF.COMPS:C10:1,2019-07-08T08:35:00,27.1690,-82.9260,3.0,5.05,294.06,7.09,'11111222,11111222,11111222' 
COMPS,ioos:station:USF.COMPS:C10:1,2019-07-08T09:35:00,27.1690,-82.9260,3.0,6.81,70.79,11.37,'11111222,11111222,11111222' 
COMPS,ioos:station:USF.COMPS:C10:1,2019-07-08T10:35:00,27.1690,-82.9260,3.0,6.48,214.01,7.8,'11111222,11111222,11111222' 
COMPS,ioos:station:USF.COMPS:C10:1,2019-07-08T11:35:00,27.1690,-82.9260,3.0,4.09,254.95,5.51,'11111222,11111222,11111222' 
COMPS,ioos:station:USF.COMPS:C10:1,2019-07-08T12:35:00,27.1690,-82.9260,3.0,2.22,216.21,3.18,'11111222,11111222,11111222' 
COMPS,ioos:station:USF.COMPS:C10:1,2019-07-08T13:35:00,27.1690,-82.9260,3.0,4.38,224.59,6.01,'11111222,11111222,11111222' 
COMPS,ioos:station:USF.COMPS:C10:1,2019-07-08T14:35:00,27.1690,-82.9260,3.0,4.52,219.63,6.73,'11111222,11111222,11111222' 
COMPS,ioos:station:USF.COMPS:C10:1,2019-07-08T15:35:00,27.1690,-82.9260,3.0,5.18,323.83,7.09,'11111222,11111222,11111222' 
COMPS,ioos:station:USF.COMPS:C10:1,2019-07-08T16:35:00,27.1690,-82.9260,3.0,5.62,289.99,7.0,'11111222,11111222,11111222' 
COMPS,ioos:station:USF.COMPS:C10:1,2019-07-08T17:35:00,27.1690,-82.9260,3.0,4.4,271.18,5.57,'11111222,11111222,11111222' 
COMPS,ioos:station:USF.COMPS:C10:1,2019-07-08T18:35:00,27.1690,-82.9260,3.0,2.26,286.21,3.0,'11111222,11111222,11111222' 
COMPS,ioos:station:USF.COMPS:C10:1,2019-07-08T19:35:00,27.1690,-82.9260,3.0,5.01,252.56,6.19,'11111222,11111222,11111222' 
COMPS,ioos:station:USF.COMPS:C10:1,2019-07-08T20:35:00,27.1690,-82.9260,3.0,6.96,266.1,8.58,'11111222,11111222,11111222' 
COMPS,ioos:station:USF.COMPS:C10:1,2019-07-08T21:35:00,27.1690,-82.9260,3.0,6.2,259.95,7.36,'11111222,11111222,11111222' 
COMPS,ioos:station:USF.COMPS:C10:1,2019-07-08T22:35:00,27.1690,-82.9260,3.0,5.71,259.35,7.11,'11111222,11111222,11111222' 
COMPS,ioos:station:USF.COMPS:C10:1,2019-07-08T23:35:00,27.1690,-82.9260,3.0,4.6,259.35,5.61,'11111222,11111222,11111222' 
COMPS,ioos:station:USF.COMPS:C10:1,2019-07-09T00:35:00,27.1690,-82.9260,3.0,4.55,262.95,5.58,'11111222,11111222,11111222' 
COMPS,ioos:station:USF.COMPS:C10:1,2019-07-09T01:35:00,27.1690,-82.9260,3.0,3.53,268.67,4.6,'11111222,11111222,11111222' 
COMPS,ioos:station:USF.COMPS:C10:1,2019-07-09T02:35:00,27.1690,-82.9260,3.0,4.36,275.46,5.54,'11111222,11111222,11111222' 
COMPS,ioos:station:USF.COMPS:C10:1,2019-07-09T03:35:00,27.1690,-82.9260,3.0,5.59,275.8,7.01,'11111222,11111222,11111222' 
COMPS,ioos:station:USF.COMPS:C10:1,2019-07-09T04:35:00,27.1690,-82.9260,3.0,5.27,267.66,6.46,'11111222,11111222,11111222' 
COMPS,ioos:station:USF.COMPS:C10:1,2019-07-09T05:35:00,27.1690,-82.9260,3.0,5.26,253.84,6.44,'11111222,11111222,11111222' 